Date,TemperatureHighF,TemperatureAvgF,TemperatureLowF,DewpointHighF,DewpointAvgF,DewpointLowF,HumidityHigh,HumidityAvg,HumidityLow,PressureMaxIn,PressureMinIn,WindSpeedMaxMPH,WindSpeedAvgMPH,GustSpeedMaxMPH,PrecipitationSumIn
2013-1-1,36.2,32.1,22.4,30.0,24.3,14.1,80,73,62,30.00,29.82,15,3,15,0.00
2013-1-2,29.6,23.8,17.9,17.2,15.0,11.3,77,69,58,30.17,29.97,17,1,17,0.00
2013-1-3,30.3,25.5,18.1,21.5,17.2,14.1,87,71,58,30.18,30.06,16,2,16,0.00
2013-1-4,35.4,31.2,28.1,25.8,22.8,20.1,81,71,61,30.07,29.94,21,4,21,0.00
2013-1-5,39.6,31.9,26.2,25.7,22.8,19.5,87,69,54,30.27,30.01,16,2,16,0.00
2013-1-6,42.8,35.6,29.0,31.9,28.4,25.0,90,76,60,30.20,29.97,12,2,12,0.00
2013-1-7,41.0,34.7,25.8,31.7,26.9,22.6,88,74,53,30.38,30.05,15,1,15,0.00
2013-1-8,44.7,35.7,25.8,32.3,28.4,22.7,90,75,57,30.39,30.32,13,2,13,0.00
2013-1-9,43.4,35.9,25.6,37.5,31.3,23.1,93,84,69,30.38,30.13,18,2,18,0.00
2013-1-10,41.5,41.0,40.2,32.1,30.6,29.0,69,66,64,30.30,30.24,11,3,11,0.00
2013-1-11,40.8,36.3,30.5,39.7,32.2,25.9,96,85,72,30.52,30.09,3,1,9,0.28
2013-1-12,45.7,42.3,36.7,44.9,41.4,35.7,97,97,95,30.16,30.08,6,0,6,0.00
2013-1-13,46.5,44.5,40.2,45.8,43.8,39.2,98,97,96,30.14,29.98,4,0,10,0.00
2013-1-14,51.8,46.1,34.2,50.8,41.8,29.9,98,86,60,30.28,29.89,14,1,14,0.07
2013-1-15,34.5,33.5,31.5,31.8,29.6,27.6,92,86,77,30.33,30.19,7,0,7,0.07
2013-1-16,33.4,31.3,29.9,32.4,30.0,28.5,96,95,89,30.20,29.81,8,1,8,0.44
2013-1-17,40.5,35.4,31.8,32.8,29.3,23.8,96,79,67,30.10,29.91,12,1,12,0.00
2013-1-18,31.8,25.6,22.5,24.8,14.1,6.8,81,62,44,30.45,29.99,13,2,13,0.00
2013-1-19,44.9,37.0,23.8,30.3,25.1,13.2,78,62,49,30.36,29.88,13,2,16,0.00
2013-1-20,48.0,38.0,25.2,31.7,25.8,11.8,78,63,32,30.01,29.69,29,4,29,0.00
2013-1-21,27.3,25.1,21.6,19.9,16.6,9.9,84,70,54,30.05,29.82,12,1,13,0.00
2013-1-22,21.6,15.3,9.2,12.4,3.6,-3.4,80,60,40,30.19,29.82,18,4,18,0.00
2013-1-23,17.5,11.0,6.8,4.8,0.4,-3.6,83,62,42,30.24,30.15,19,2,19,0.00
2013-1-24,20.7,13.4,7.5,7.3,3.1,-0.2,85,65,42,30.42,30.12,19,2,20,0.00
2013-1-25,11.4,9.7,9.0,2.4,0.8,-0.5,73,67,59,30.41,30.39,14,2,14,0.00
2013-1-26,24.8,19.4,10.8,11.5,9.1,7.4,89,64,52,30.38,30.03,15,2,15,0.00
2013-1-27,31.3,21.9,11.8,17.1,12.2,7.7,86,67,43,30.53,30.38,13,1,13,0.00
2013-1-28,34.2,28.4,19.4,32.9,25.3,13.7,95,88,73,30.48,30.00,9,1,9,0.14
2013-1-29,50.4,38.7,34.2,44.4,37.1,32.9,97,94,77,30.13,30.00,10,1,12,0.12
2013-1-30,60.0,49.1,40.5,59.2,48.2,39.7,98,97,95,30.04,29.29,11,1,15,0.33
2013-1-31,59.8,40.0,25.4,59.0,31.0,11.6,98,71,45,29.75,29.02,27,7,36,1.29
2013-2-1,28.8,24.0,19.7,17.3,13.8,6.3,81,66,39,30.22,29.74,25,4,25,0.00
2013-2-2,25.1,19.6,14.0,18.7,12.0,7.2,90,73,49,30.27,30.04,16,2,16,0.05
2013-2-3,27.9,21.6,17.3,21.2,17.9,14.6,93,86,74,30.04,29.80,11,0,11,0.00
2013-2-4,27.8,23.1,18.3,20.5,13.1,10.2,91,66,49,29.96,29.81,18,3,18,0.00
2013-2-5,28.6,26.0,23.1,25.6,22.5,18.0,92,87,78,29.96,29.88,6,0,6,0.00
2013-2-6,35.7,29.8,23.4,27.5,21.5,11.0,94,73,50,30.33,29.91,15,2,15,0.00
2013-2-7,30.7,24.6,17.1,21.2,13.9,10.8,80,64,49,30.48,30.30,10,1,10,0.00
2013-2-8,32.0,29.7,27.3,30.7,27.5,21.2,95,92,77,30.30,29.68,15,4,15,0.29
2013-2-9,29.6,24.7,16.1,27.4,18.0,9.1,95,76,52,30.34,29.76,21,3,21,0.16
2013-2-10,40.3,26.0,13.3,21.0,15.2,9.3,88,66,35,30.47,30.30,8,1,11,0.00
2013-2-11,41.5,36.5,29.1,40.5,34.0,19.6,97,91,67,30.30,29.67,12,2,12,0.16
2013-2-12,41.1,36.8,29.1,36.4,27.9,24.1,97,70,58,29.95,29.72,20,4,20,0.00
2013-2-13,43.0,33.5,22.6,31.6,26.2,20.1,93,76,53,29.94,29.68,7,0,7,0.08
2013-2-14,43.3,35.5,30.5,33.9,29.3,26.0,95,79,55,29.99,29.70,10,1,10,0.00
2013-2-15,51.0,41.0,30.6,35.0,30.6,26.4,91,68,44,29.99,29.91,16,2,16,0.08
2013-2-16,33.9,30.7,25.4,32.2,24.4,13.1,94,78,58,29.95,29.75,13,1,13,0.02
2013-2-17,28.1,22.3,14.4,13.5,7.3,1.5,61,52,40,30.02,29.69,30,4,30,0.00
2013-2-18,33.4,23.4,12.8,16.2,8.8,2.5,69,54,37,30.25,30.02,21,3,21,0.00
2013-2-19,39.7,33.4,25.5,38.4,26.8,14.2,95,77,56,30.18,29.69,14,2,14,0.22
2013-2-20,32.8,24.0,21.5,25.1,13.6,11.4,75,64,53,29.98,29.72,16,4,33,0.00
2013-2-21,30.8,24.1,19.2,17.7,14.3,12.4,78,66,56,30.30,29.96,23,4,23,0.00
2013-2-22,34.7,27.6,18.1,29.6,21.3,13.4,89,77,63,30.39,30.26,12,2,12,0.00
2013-2-23,38.9,35.4,32.5,37.9,34.2,29.6,96,95,89,30.26,29.81,11,2,11,0.05
2013-2-24,41.3,34.8,29.3,39.8,30.5,22.6,97,84,69,29.98,29.76,14,2,14,0.00
2013-2-25,40.2,33.8,28.8,31.4,27.4,22.6,88,78,65,30.24,29.98,13,1,13,0.00
2013-2-26,40.8,33.7,25.8,33.2,29.7,23.8,94,85,69,30.27,29.86,19,3,19,0.15
2013-2-27,44.7,39.9,33.7,43.6,37.8,32.2,96,92,85,29.86,29.50,22,5,22,0.20
2013-2-28,46.9,39.0,32.6,37.9,33.0,27.9,95,80,58,29.61,29.54,11,1,11,0.00
2013-3-1,41.8,35.2,30.2,30.8,28.8,25.2,93,78,62,29.79,29.60,15,1,15,0.00
2013-3-2,35.7,31.0,27.2,26.5,24.0,21.6,87,75,65,29.78,29.71,14,2,14,0.00
2013-3-3,33.7,28.2,24.5,22.0,19.7,16.1,79,70,59,29.78,29.69,15,3,15,0.00
2013-3-4,37.4,30.6,24.2,22.9,20.4,16.1,78,66,52,29.92,29.77,18,3,18,0.00
2013-3-5,44.7,35.7,28.2,28.6,25.2,21.8,77,66,50,30.01,29.92,15,2,15,0.00
2013-3-6,37.8,35.7,34.3,35.2,29.7,26.9,91,79,71,29.96,29.84,21,6,27,0.02
2013-3-7,39.4,34.3,30.6,33.0,28.8,25.3,94,81,67,30.09,29.95,20,4,20,0.06
2013-3-8,41.3,32.8,27.9,34.9,28.9,25.4,94,86,71,30.23,30.01,17,2,17,0.18
2013-3-9,54.6,39.7,28.8,30.7,25.6,21.0,83,61,28,30.31,30.20,13,1,13,0.00
2013-3-10,52.6,40.0,28.5,36.5,31.0,24.3,92,72,44,30.35,30.26,12,2,12,0.00
2013-3-11,53.4,43.1,34.8,47.2,39.9,32.5,96,89,59,30.30,30.03,15,3,15,0.00
2013-3-12,55.4,49.6,40.0,54.3,47.4,35.8,96,92,83,30.03,29.65,21,4,21,1.17
2013-3-13,47.6,39.6,32.8,35.8,30.2,24.5,93,70,41,29.88,29.78,17,2,17,0.00
2013-3-14,38.1,31.3,25.9,25.9,14.1,7.7,73,50,30,29.95,29.84,28,4,28,0.00
2013-3-15,42.8,34.4,24.9,31.6,22.2,13.4,73,61,51,29.97,29.72,18,3,18,0.00
2013-3-16,37.1,32.1,29.7,29.6,25.7,21.2,91,77,63,29.85,29.76,9,0,9,0.09
2013-3-17,34.1,31.4,24.2,28.1,19.5,16.2,92,61,52,30.31,29.91,13,1,13,0.00
2013-3-18,31.6,27.3,22.6,29.3,19.4,9.9,95,73,53,30.37,29.95,15,3,15,0.26
2013-3-19,42.5,34.8,30.6,40.9,32.3,19.1,97,91,57,29.95,29.70,17,2,17,0.14
2013-3-20,41.8,34.3,28.1,26.6,21.4,18.7,80,60,40,29.87,29.77,23,4,23,0.00
2013-3-21,36.2,30.3,25.9,26.8,18.2,12.7,86,62,40,29.83,29.64,14,2,14,0.00
2013-3-22,37.9,31.1,24.6,24.2,19.8,13.2,77,63,50,29.89,29.71,17,3,17,0.00
2013-3-23,41.8,35.4,29.9,25.3,21.3,18.6,71,57,42,29.93,29.83,22,3,22,0.00
2013-3-24,43.7,36.4,26.1,25.9,22.7,19.1,78,58,44,29.94,29.68,14,2,14,0.00
2013-3-25,38.4,36.0,33.2,33.0,29.1,24.7,92,76,62,29.68,29.47,17,2,17,0.02
2013-3-26,48.6,39.9,33.3,34.5,29.6,25.2,89,69,41,29.87,29.60,16,1,16,0.00
2013-3-27,49.2,38.7,28.8,32.7,28.0,22.2,87,68,37,29.99,29.86,16,2,16,0.00
2013-3-28,46.7,39.5,31.6,33.0,30.5,28.3,89,71,54,30.12,29.95,13,1,13,0.00
2013-3-29,51.7,42.7,34.0,31.7,29.8,27.4,79,61,40,30.14,30.07,15,2,15,0.00
2013-3-30,56.6,43.9,32.1,32.9,26.3,15.9,87,55,20,30.16,30.05,16,1,16,0.00
2013-3-31,55.8,42.8,31.1,41.9,33.0,24.4,95,71,41,30.10,29.68,22,3,22,0.11
2013-4-1,57.2,44.7,32.4,47.1,34.9,13.7,96,72,34,29.89,29.63,21,3,21,0.00
2013-4-2,41.3,33.9,27.2,21.4,14.8,11.3,66,46,30,30.07,29.89,28,3,28,0.00
2013-4-3,43.7,34.9,27.7,17.7,14.0,10.8,61,43,28,30.30,30.06,20,3,20,0.00
2013-4-4,52.6,40.1,27.6,25.5,21.1,15.9,65,48,30,30.36,30.04,13,2,14,0.00
2013-4-5,59.7,46.1,35.0,29.6,25.0,20.1,75,46,23,30.04,29.74,18,2,18,0.00
2013-4-6,52.7,40.7,30.4,26.6,16.8,8.0,67,41,18,30.28,30.00,15,2,15,0.00
2013-4-7,61.1,48.2,35.7,43.7,34.4,26.3,79,60,38,30.27,29.97,21,4,21,0.00
2013-4-8,74.8,60.2,44.6,48.7,43.3,38.2,87,57,27,30.06,29.94,13,2,13,0.00
2013-4-9,79.6,67.5,53.5,53.1,45.5,36.8,86,50,22,29.95,29.86,25,2,25,0.00
2013-4-10,81.0,64.9,53.5,58.6,53.0,43.3,95,68,43,29.90,29.77,18,2,18,0.50
2013-4-11,59.1,53.9,44.3,58.0,49.8,42.4,96,87,61,29.99,29.76,15,2,15,0.00
2013-4-12,44.3,40.8,38.3,42.4,38.7,36.6,96,92,80,29.96,29.72,22,5,22,0.31
2013-4-13,54.9,46.1,37.5,43.4,37.4,34.1,96,74,48,29.96,29.76,15,2,15,0.00
2013-4-14,54.6,49.0,44.4,36.1,32.1,27.6,69,53,38,30.20,29.95,22,2,22,0.00
2013-4-15,58.8,48.6,40.8,39.2,32.5,27.7,75,54,41,30.34,30.19,17,2,17,0.00
2013-4-16,68.0,57.2,45.2,56.3,49.4,38.9,90,76,63,30.34,30.10,19,3,19,0.00
2013-4-17,68.7,59.1,50.7,56.2,41.3,31.9,89,56,27,30.27,30.11,13,2,13,0.01
2013-4-18,56.6,50.7,44.6,52.4,44.0,37.4,96,79,49,30.28,30.05,18,4,18,0.00
2013-4-19,74.2,63.2,52.2,64.7,59.5,49.3,97,89,69,30.06,29.60,16,5,16,0.71
2013-4-20,55.9,48.8,39.8,49.3,34.4,23.1,93,61,35,30.32,29.67,22,4,22,0.10
2013-4-21,52.5,42.4,32.1,27.7,23.4,19.8,69,48,30,30.61,30.32,15,2,15,0.00
2013-4-22,51.2,43.7,34.8,35.1,31.4,26.6,83,63,47,30.63,30.46,16,3,16,0.00
2013-4-23,47.9,42.1,36.5,40.8,36.5,31.2,89,81,75,30.46,30.12,12,2,12,0.00
2013-4-24,70.3,54.1,34.6,54.3,45.7,32.7,95,75,54,30.12,29.79,15,2,15,0.00
2013-4-25,63.1,52.5,41.0,54.7,31.4,21.4,85,48,22,30.24,29.86,20,3,20,0.00
2013-4-26,63.5,52.0,40.2,38.1,30.9,22.8,75,48,22,30.40,30.24,12,1,12,0.00
2013-4-27,69.0,54.4,36.6,36.7,33.0,28.9,82,48,25,30.41,30.25,9,1,9,0.00
2013-4-28,71.0,57.7,41.3,43.2,38.0,31.1,84,50,31,30.28,30.15,14,2,14,0.00
2013-4-29,54.4,51.0,49.5,48.9,47.1,39.0,95,87,56,30.21,30.15,16,2,16,0.10
2013-4-30,64.6,54.4,45.1,50.3,40.0,25.2,96,64,27,30.32,30.18,11,2,11,0.02
2013-5-1,67.4,53.6,37.0,44.8,35.7,25.7,85,55,23,30.46,30.32,16,2,16,0.00
2013-5-2,74.0,58.1,40.0,47.4,41.1,37.3,95,59,30,30.45,30.31,12,1,12,0.00
2013-5-3,64.0,56.1,46.5,43.4,37.8,29.3,83,52,28,30.41,30.32,14,2,14,0.00
2013-5-4,70.7,54.9,40.2,45.8,41.2,37.5,94,64,32,30.33,30.18,13,2,13,0.00
2013-5-5,64.1,51.5,40.5,43.6,40.1,34.6,93,68,34,30.26,30.18,14,1,14,0.00
2013-5-6,69.5,55.0,40.6,54.2,47.3,37.9,93,77,55,30.24,30.13,14,1,14,0.00
2013-5-7,71.7,60.7,46.4,58.0,52.2,44.5,95,75,52,30.15,30.06,16,1,16,0.00
2013-5-8,65.0,59.9,53.6,62.0,57.7,51.5,96,92,87,30.07,29.94,12,1,12,0.91
2013-5-9,65.4,57.7,53.0,58.5,54.0,51.1,96,88,69,29.97,29.89,12,0,12,0.06
2013-5-10,77.6,66.1,50.9,60.3,55.4,49.5,97,72,42,30.00,29.89,11,1,11,0.02
2013-5-11,69.5,63.8,58.8,64.5,60.9,56.7,95,91,78,29.90,29.69,9,1,9,0.69
2013-5-12,64.7,56.6,45.4,56.7,40.8,25.2,93,59,28,29.91,29.66,28,3,28,0.01
2013-5-13,52.9,45.5,38.0,33.9,30.7,26.1,82,58,36,30.11,29.91,20,2,20,0.00
2013-5-14,59.7,46.8,33.7,34.7,29.6,19.7,89,57,22,30.13,30.01,14,1,14,0.00
2013-5-15,71.3,57.3,40.8,58.7,47.4,34.1,89,70,55,30.06,29.67,14,1,14,0.02
2013-5-16,79.5,65.8,52.1,59.6,52.6,45.7,96,67,34,29.85,29.72,10,0,10,0.00
2013-5-17,71.2,59.3,49.0,46.9,42.7,38.5,80,56,32,30.20,29.85,13,1,13,0.00
2013-5-18,64.0,56.0,48.2,55.0,49.8,44.2,91,80,54,30.27,30.18,8,0,8,0.02
2013-5-19,58.7,56.0,54.1,57.5,54.5,52.4,96,94,90,30.27,30.15,13,1,13,0.11
2013-5-20,79.1,66.5,56.3,67.2,62.0,55.2,97,86,63,30.15,29.97,10,0,10,0.01
2013-5-21,86.6,73.2,60.2,72.3,66.6,58.8,97,81,58,29.97,29.82,10,0,10,0.00
2013-5-22,82.5,72.6,63.1,72.9,67.8,61.3,96,86,70,29.89,29.79,12,1,12,0.00
2013-5-23,75.0,68.6,61.9,70.5,66.0,60.5,96,92,78,29.86,29.73,15,0,15,0.96
2013-5-24,61.9,50.8,41.8,60.5,49.1,40.1,97,94,88,29.96,29.67,16,2,16,0.39
2013-5-25,52.4,46.6,41.0,43.5,40.5,36.5,96,80,59,30.01,29.91,19,2,19,0.20
2013-5-26,64.0,53.5,43.8,41.8,37.8,32.7,82,58,33,30.20,29.97,20,2,20,0.00
2013-5-27,74.7,57.1,38.8,46.9,41.0,36.3,94,60,27,30.24,30.12,12,1,12,0.00
2013-5-28,62.1,54.7,47.5,54.8,50.9,44.1,97,87,63,30.20,30.11,7,0,7,0.53
2013-5-29,82.4,68.4,55.6,70.3,63.3,54.8,98,85,62,30.11,30.00,10,0,10,0.00
2013-5-30,90.5,77.4,66.0,69.7,65.3,61.1,94,69,40,30.13,30.04,8,0,8,0.00
2013-5-31,91.5,77.5,65.3,74.1,65.4,60.2,96,69,42,30.10,29.97,9,0,9,0.00
2013-6-1,88.5,77.6,66.6,72.3,67.8,62.4,93,73,53,30.00,29.87,10,0,10,0.00
2013-6-2,85.6,76.1,68.5,72.6,68.7,66.3,95,79,59,29.88,29.75,11,0,11,0.48
2013-6-3,76.5,69.2,60.3,68.0,62.9,46.8,96,82,61,29.90,29.78,9,0,9,0.29
2013-6-4,73.5,61.6,50.9,49.5,46.1,42.5,83,59,34,30.11,29.90,13,1,13,0.00
2013-6-5,73.7,61.7,46.3,51.9,47.0,38.7,88,60,42,30.19,30.09,9,1,9,0.00
2013-6-6,66.8,59.5,51.9,58.3,54.3,49.3,95,84,57,30.11,29.96,15,1,15,0.30
2013-6-7,60.9,59.4,57.7,59.8,58.3,56.3,97,96,95,29.96,29.63,12,1,12,1.39
2013-6-8,73.4,64.3,55.4,65.0,60.6,54.3,97,88,72,30.07,29.62,12,0,12,0.34
2013-6-9,78.7,67.1,56.2,64.1,59.4,54.8,96,79,51,30.16,30.07,9,0,9,0.00
2013-6-10,66.3,63.7,61.7,63.9,61.6,59.7,97,93,88,30.15,29.78,15,1,15,1.19
2013-6-11,75.8,69.0,62.5,68.3,64.5,59.7,98,86,71,29.78,29.63,16,1,16,0.05
2013-6-12,74.7,67.1,58.5,61.1,56.8,53.0,90,71,53,29.84,29.71,13,1,13,0.00
2013-6-13,61.0,58.9,54.1,58.6,56.9,52.7,96,93,87,29.83,29.45,14,1,20,1.10
2013-6-14,71.0,59.4,51.1,61.4,55.8,49.4,95,88,59,29.91,29.55,11,1,11,0.35
2013-6-15,78.5,65.0,53.0,61.4,55.5,51.0,97,75,40,30.01,29.91,11,0,11,0.01
2013-6-16,77.2,65.2,53.8,65.1,58.1,51.8,94,79,54,29.99,29.77,19,1,19,0.00
2013-6-17,84.1,72.7,61.8,69.2,63.6,57.3,96,75,44,29.90,29.83,12,0,12,0.00
2013-6-18,83.0,69.2,60.3,69.9,62.8,58.0,95,81,50,29.89,29.79,13,0,13,0.72
2013-6-19,75.3,63.5,54.8,57.9,53.2,48.8,95,72,44,30.15,29.88,2,0,10,0.00
2013-6-20,79.8,66.0,51.4,60.6,55.9,49.5,95,73,47,30.24,30.15,2,0,10,0.00
2013-6-21,82.0,70.1,59.3,62.7,57.8,51.1,85,66,48,30.28,30.21,3,0,11,0.00
2013-6-22,83.1,72.9,56.7,67.5,63.2,54.1,93,73,56,30.24,30.10,11,0,11,0.00
2013-6-23,86.4,76.3,66.0,71.3,67.8,63.0,92,76,57,30.16,30.03,7,1,11,0.00
2013-6-24,89.5,77.7,69.4,73.8,69.3,63.7,94,77,53,30.06,29.92,12,1,12,0.02
2013-6-25,88.6,76.3,66.2,74.4,69.0,64.4,96,80,55,29.99,29.79,11,1,11,0.06
2013-6-26,82.3,73.9,67.0,71.4,68.1,64.5,93,83,65,29.83,29.77,9,0,9,0.01
2013-6-27,85.3,73.3,65.9,73.1,68.1,64.1,96,85,60,29.81,29.49,16,0,16,1.13
2013-6-28,84.1,75.0,69.4,71.7,68.8,65.2,95,82,62,29.52,29.45,8,1,13,0.02
2013-6-29,82.9,73.2,65.2,68.4,65.5,63.4,95,79,57,29.68,29.46,11,0,11,0.00
2013-6-30,84.1,73.6,64.9,74.9,69.1,62.8,95,86,71,29.89,29.68,12,0,12,0.00
2013-7-1,74.0,72.2,68.8,72.5,70.4,67.3,97,94,91,30.02,29.87,14,0,14,0.78
2013-7-2,82.2,75.2,71.7,75.3,71.8,69.3,96,90,76,30.15,30.02,4,0,11,0.05
2013-7-3,83.3,75.8,70.9,74.7,71.3,68.6,93,86,73,30.22,30.14,9,0,10,0.00
2013-7-4,87.0,79.0,73.1,75.6,72.9,71.2,94,82,67,30.23,30.13,10,1,10,0.00
2013-7-5,89.6,80.7,73.0,76.7,72.6,70.5,94,78,58,30.19,30.07,9,1,9,0.00
2013-7-6,90.2,80.7,73.5,75.4,73.1,70.8,93,79,60,30.12,30.01,5,1,10,0.00
2013-7-7,91.1,80.9,70.5,76.4,72.9,67.2,93,78,58,30.05,29.92,11,1,11,0.04
2013-7-8,86.5,76.0,67.3,73.5,68.6,65.2,95,79,54,30.03,29.95,10,0,10,0.00
2013-7-9,86.3,75.2,66.8,73.0,68.8,64.5,95,82,60,30.06,29.97,18,0,18,0.08
2013-7-10,83.4,76.3,70.2,75.4,71.9,68.6,97,87,70,30.00,29.80,12,1,12,0.00
2013-7-11,80.6,75.2,69.1,73.6,68.5,62.0,93,80,64,29.91,29.80,5,0,7,0.00
2013-7-12,75.3,70.7,66.6,69.0,65.2,60.8,94,83,74,30.08,29.91,7,0,7,0.10
2013-7-13,77.9,70.6,65.2,74.1,68.8,63.7,97,94,87,30.27,30.08,7,0,7,0.08
2013-7-14,89.2,79.3,72.7,76.3,72.9,70.8,96,82,58,30.34,30.23,12,0,12,0.01
2013-7-15,90.0,80.5,71.6,77.6,72.8,69.5,95,79,58,30.25,30.14,6,0,8,0.00
2013-7-16,89.3,79.3,69.3,73.9,70.6,66.8,93,76,54,30.21,30.14,6,0,6,0.00
2013-7-17,92.7,80.1,69.7,73.9,71.0,67.4,95,76,48,30.19,30.05,6,0,6,0.00
2013-7-18,95.0,83.0,73.5,76.9,73.2,70.0,91,74,48,30.07,29.95,8,0,8,0.00
2013-7-19,93.0,82.5,73.1,79.3,74.6,70.6,93,78,59,29.96,29.78,14,1,14,0.00
2013-7-20,89.1,80.7,74.6,75.3,71.8,67.4,87,75,57,29.83,29.72,15,1,15,0.00
2013-7-21,86.5,77.7,70.2,71.0,67.7,65.5,90,73,51,29.94,29.83,8,0,8,0.00
2013-7-22,82.1,74.4,68.0,74.5,69.7,64.7,95,86,72,29.94,29.78,9,0,9,0.61
2013-7-23,83.1,75.2,69.9,74.6,71.3,67.7,96,88,71,29.78,29.56,9,0,13,0.62
2013-7-24,76.2,69.6,60.5,67.7,62.9,52.8,95,80,58,29.93,29.62,8,0,9,0.00
2013-7-25,68.0,62.5,57.5,60.3,55.5,50.2,85,78,72,30.04,29.92,6,0,6,0.00
2013-7-26,82.1,69.5,61.8,65.2,60.6,57.9,89,75,50,30.04,29.99,7,0,8,0.00
2013-7-27,81.2,70.4,57.8,67.4,61.9,55.8,96,76,56,30.04,29.93,9,0,9,0.00
2013-7-28,74.8,68.5,65.4,70.6,65.8,61.3,96,91,79,29.97,29.90,11,0,11,1.28
2013-7-29,80.0,69.6,61.0,66.8,61.8,55.4,97,79,45,30.10,29.95,11,0,12,0.00
2013-7-30,76.1,66.5,56.8,62.8,58.4,54.4,92,77,55,30.17,30.09,11,0,11,0.00
2013-7-31,78.8,68.2,56.3,65.0,60.3,54.6,96,78,55,30.15,30.02,6,0,6,0.00
2013-8-1,67.1,65.7,63.6,65.9,63.9,61.8,96,94,89,30.02,29.83,10,1,17,0.59
2013-8-2,79.2,70.4,61.2,67.6,63.5,60.0,97,80,59,29.91,29.80,12,0,12,0.00
2013-8-3,76.4,66.9,62.9,68.2,62.8,58.6,95,87,73,29.90,29.83,13,0,13,0.09
2013-8-4,74.0,65.7,57.4,62.9,57.7,52.0,95,77,55,29.98,29.86,12,1,12,0.00
2013-8-5,74.8,63.4,53.2,59.0,52.9,47.4,92,71,45,30.05,29.97,9,0,10,0.00
2013-8-6,79.6,66.3,53.3,62.5,57.3,51.6,96,75,46,30.11,30.03,11,0,11,0.00
2013-8-7,74.4,68.3,64.2,68.3,64.8,61.0,94,89,77,30.11,30.04,13,1,13,0.00
2013-8-8,81.6,72.4,68.0,74.5,69.8,66.5,96,92,76,30.04,29.97,9,0,9,0.15
2013-8-9,82.0,74.2,70.7,75.1,72.0,69.1,97,93,78,29.99,29.79,8,1,14,0.72
2013-8-10,79.7,70.6,62.5,69.1,64.8,59.4,96,83,59,30.05,29.86,6,0,9,0.00
2013-8-11,77.5,66.6,56.2,65.2,59.2,53.9,94,78,54,30.12,30.03,8,0,8,0.00
2013-8-12,81.1,70.4,64.9,66.5,63.9,59.3,96,81,56,30.03,29.92,7,0,7,0.19
2013-8-13,78.4,69.7,64.6,69.8,66.7,62.1,97,91,74,29.92,29.69,13,0,13,0.70
2013-8-14,69.8,61.4,53.4,63.0,53.7,49.9,93,77,60,30.05,29.76,13,1,15,0.00
2013-8-15,74.7,61.3,50.5,58.0,52.5,48.3,94,75,43,30.14,30.05,9,0,9,0.00
2013-8-16,77.9,64.1,52.5,60.1,55.0,50.8,96,75,44,30.19,30.11,7,0,7,0.00
2013-8-17,78.5,65.9,54.6,64.3,58.5,52.8,96,79,47,30.26,30.19,6,0,6,0.00
2013-8-18,71.4,65.9,59.4,64.8,61.1,56.9,94,85,71,30.25,30.13,4,0,4,0.01
2013-8-19,75.9,67.2,60.2,65.3,62.1,58.8,96,85,65,30.13,30.04,7,0,7,0.00
2013-8-20,83.5,71.7,61.7,68.8,65.0,60.2,96,81,58,30.14,30.05,9,0,9,0.00
2013-8-21,84.5,72.1,60.8,68.3,63.9,58.7,97,78,46,30.17,30.05,7,0,7,0.00
2013-8-22,79.7,71.2,67.2,72.8,68.5,64.5,96,91,77,30.06,29.87,9,0,9,0.56
2013-8-23,75.8,69.5,61.9,65.8,62.0,57.3,95,79,55,30.10,29.89,9,0,9,0.00
2013-8-24,76.4,64.1,56.5,57.9,54.5,51.9,92,73,43,30.33,30.10,2,0,10,0.00
2013-8-25,79.2,65.2,53.3,63.1,56.4,51.7,96,76,45,30.39,30.23,9,0,9,0.00
2013-8-26,79.7,70.1,64.3,69.7,63.3,56.4,93,79,70,30.23,29.91,9,0,9,0.14
2013-8-27,83.1,73.6,67.6,71.0,68.0,65.8,95,83,63,29.91,29.83,7,0,9,0.01
2013-8-28,78.9,70.8,65.6,73.3,68.8,64.1,97,93,79,29.89,29.84,14,0,14,0.20
2013-8-29,79.1,70.5,65.4,70.6,67.6,64.2,97,91,73,30.00,29.88,7,0,7,0.04
2013-8-30,80.3,71.8,66.0,71.9,68.0,64.5,96,88,74,30.01,29.86,12,0,12,0.06
2013-8-31,81.7,75.3,70.8,75.3,71.5,68.7,94,88,78,29.86,29.78,9,0,9,0.00
2013-9-1,81.2,75.9,71.7,74.7,72.1,68.8,95,88,78,29.83,29.77,8,0,8,0.00
2013-9-2,75.0,71.8,69.0,72.8,70.0,67.2,97,94,88,29.78,29.70,8,0,8,0.07
2013-9-3,76.9,68.7,60.7,68.3,62.9,57.3,97,83,58,29.88,29.72,12,0,12,0.35
2013-9-4,75.2,63.8,57.1,61.2,57.8,55.2,95,82,58,29.99,29.88,11,1,11,0.00
2013-9-5,71.6,62.9,56.3,61.8,53.5,45.5,93,73,42,30.15,29.92,3,0,12,0.00
2013-9-6,67.7,56.0,46.4,48.5,45.2,37.9,93,70,34,30.25,30.13,4,0,7,0.00
2013-9-7,74.3,60.9,46.8,57.3,50.8,44.6,95,73,44,30.13,29.91,7,0,9,0.00
2013-9-8,74.2,65.7,56.3,65.2,56.2,45.7,90,73,44,30.07,29.82,12,1,12,0.00
2013-9-9,69.8,59.5,46.3,59.6,51.6,43.8,94,76,58,30.22,30.07,9,0,9,0.00
2013-9-10,83.9,72.5,63.5,74.6,68.2,59.6,95,87,73,30.15,30.05,11,1,11,0.00
2013-9-11,90.1,79.9,71.1,78.8,73.7,68.9,95,82,66,30.11,29.97,7,0,7,0.00
2013-9-12,80.0,72.9,66.2,75.7,70.1,64.7,95,91,80,29.97,29.68,28,0,28,0.99
2013-9-13,69.7,63.7,54.1,65.3,58.9,49.0,96,85,66,29.85,29.64,13,1,13,0.06
2013-9-14,59.9,53.8,46.1,50.3,47.1,43.3,90,78,66,30.12,29.85,13,1,13,0.00
2013-9-15,68.9,54.7,42.2,53.2,47.4,40.6,96,79,49,30.22,30.09,6,0,6,0.00
2013-9-16,66.5,59.2,53.3,56.9,53.7,47.7,95,83,62,30.24,30.02,9,0,9,0.02
2013-9-17,61.4,51.8,42.6,47.7,42.1,39.0,92,71,46,30.42,30.24,8,0,8,0.00
2013-9-18,66.5,51.3,41.3,50.4,43.8,39.7,96,79,47,30.35,30.21,7,0,7,0.00
2013-9-19,73.1,56.8,44.2,53.9,48.8,42.6,96,78,47,30.19,30.08,1,0,7,0.00
2013-9-20,75.9,62.1,49.5,63.2,55.5,48.1,97,81,54,30.08,29.98,9,0,9,0.00
2013-9-21,73.5,63.2,54.4,64.1,58.2,52.7,96,85,58,29.99,29.65,11,1,11,0.60
2013-9-22,62.9,57.7,51.1,58.7,50.8,41.5,96,79,59,29.92,29.65,15,1,16,0.10
2013-9-23,60.0,52.0,44.0,46.4,43.2,40.7,89,72,58,30.04,29.90,13,1,14,0.00
2013-9-24,68.2,53.6,40.0,49.0,44.4,37.9,94,73,44,30.05,29.90,11,1,14,0.00
2013-9-25,68.7,54.3,41.8,52.2,46.4,39.7,95,77,50,29.96,29.88,7,0,7,0.00
2013-9-26,67.5,56.4,46.4,57.7,52.1,44.8,96,86,68,30.09,29.94,5,0,5,0.00
2013-9-27,66.9,56.9,47.1,55.1,50.7,44.9,95,81,59,30.25,30.09,3,0,6,0.00
2013-9-28,68.4,58.6,48.6,54.8,51.4,46.7,96,79,52,30.32,30.23,9,0,9,0.00
2013-9-29,67.3,56.8,47.0,58.6,51.8,45.7,97,84,64,30.24,30.07,7,0,7,0.00
2013-9-30,68.9,56.9,46.4,56.6,50.5,45.0,97,81,54,30.07,29.97,7,0,7,0.00
2013-10-1,75.3,60.8,49.2,62.9,55.5,47.8,97,84,62,30.02,29.92,8,0,8,0.00
2013-10-2,79.2,64.9,52.8,65.3,58.8,51.1,97,82,57,30.02,29.93,10,0,10,0.00
2013-10-3,74.0,63.5,52.7,61.5,57.1,51.0,96,81,51,30.11,30.02,5,0,5,0.00
2013-10-4,81.3,68.8,59.3,68.7,63.1,57.5,96,83,61,30.05,29.98,10,0,10,0.01
2013-10-5,77.0,68.3,61.4,68.8,64.2,60.0,97,87,65,30.07,30.01,9,0,9,0.01
2013-10-6,65.0,63.9,63.3,62.6,62.2,62.0,96,95,92,30.05,30.02,8,0,8,0.00
2013-10-7,71.2,63.1,53.0,69.3,61.5,48.9,98,94,86,30.00,29.73,17,2,18,0.34
2013-10-8,62.6,53.8,46.4,49.2,46.8,44.6,94,79,53,30.32,29.97,8,0,8,0.00
2013-10-9,57.7,52.4,45.5,47.6,44.6,39.8,89,75,62,30.38,30.28,12,1,12,0.00
2013-10-10,58.4,54.0,50.5,54.0,49.5,44.6,93,84,78,30.28,30.07,8,0,8,0.02
2013-10-11,63.1,60.1,55.9,58.9,55.9,51.6,90,86,82,30.09,30.02,9,1,9,0.00
2013-10-12,69.5,62.1,56.2,57.0,47.5,34.7,86,61,28,30.26,30.07,14,1,14,0.00
2013-10-13,60.5,55.8,49.3,53.2,50.1,46.3,90,82,69,30.37,30.25,10,1,13,0.00
2013-10-14,65.4,53.7,43.7,52.8,47.6,42.4,96,81,54,30.35,30.23,4,0,6,0.00
2013-10-15,68.3,56.4,46.1,57.6,49.8,44.7,97,80,61,30.25,30.11,10,0,10,0.00
2013-10-16,64.5,56.4,48.9,57.3,52.2,46.1,94,86,75,30.11,29.94,7,0,7,0.00
2013-10-17,72.5,64.0,59.2,61.9,59.5,57.5,95,86,62,29.90,29.66,2,1,11,0.01
2013-10-18,63.9,56.7,46.1,61.8,46.0,41.4,93,68,51,29.97,29.66,14,2,18,0.00
2013-10-19,62.2,51.0,40.2,50.7,43.9,38.3,96,78,50,29.97,29.75,15,0,15,0.10
2013-10-20,59.6,50.1,41.4,50.1,40.6,34.6,93,72,40,30.06,29.76,16,1,16,0.01
2013-10-21,63.5,50.6,38.1,45.0,39.5,36.0,95,69,38,30.14,29.95,11,1,11,0.00
2013-10-22,62.1,51.8,43.4,51.8,44.7,36.3,95,77,58,29.95,29.74,7,1,14,0.00
2013-10-23,52.3,42.8,35.3,39.6,35.6,32.1,90,76,52,29.81,29.62,14,0,14,0.00
2013-10-24,49.9,41.1,33.7,36.3,31.6,26.9,93,71,44,30.00,29.76,11,1,18,0.00
2013-10-25,50.1,40.4,32.6,36.0,31.4,29.3,90,71,46,30.23,30.00,10,1,14,0.00
2013-10-26,51.5,41.7,30.0,35.6,31.4,28.2,94,70,45,30.21,29.88,12,2,18,0.00
2013-10-27,54.1,47.0,39.1,36.2,33.0,31.4,75,59,44,30.12,29.84,17,2,17,0.00
2013-10-28,58.5,45.0,31.7,37.0,33.6,29.0,92,67,41,30.31,30.11,15,1,15,0.00
2013-10-29,51.9,43.4,36.0,36.4,33.1,31.1,85,68,48,30.41,30.31,6,0,6,0.00
2013-10-30,54.4,45.7,35.1,49.4,42.2,31.7,94,88,81,30.35,30.18,6,0,6,0.00
2013-10-31,60.8,54.7,44.5,58.8,53.1,42.6,96,94,90,30.23,29.77,12,1,12,0.04
2013-11-1,66.7,61.4,48.9,62.8,56.2,45.9,94,84,60,29.78,29.52,27,3,27,0.32
2013-11-2,64.8,52.7,43.3,48.9,44.5,38.8,94,75,50,29.78,29.62,9,0,13,0.00
2013-11-3,46.5,41.0,30.9,42.2,31.4,20.4,87,69,46,30.45,29.77,18,1,18,0.00
2013-11-4,43.4,34.4,25.4,24.0,20.2,15.2,80,58,32,30.66,30.44,7,1,14,0.00
2013-11-5,52.3,42.9,31.1,41.4,35.2,23.5,86,75,60,30.66,30.47,9,1,9,0.00
2013-11-6,57.5,51.7,44.7,49.3,45.6,41.1,89,80,68,30.49,30.05,11,1,11,0.00
2013-11-7,57.5,49.8,35.5,54.6,46.1,31.7,93,87,72,30.05,29.75,17,2,17,0.17
2013-11-8,45.2,39.5,34.1,34.0,29.3,24.1,88,67,49,30.21,29.91,17,2,17,0.00
2013-11-9,47.4,38.8,29.6,33.9,29.1,26.3,90,69,48,30.28,29.98,11,1,11,0.00
2013-11-10,56.6,44.7,35.6,38.8,33.4,27.5,83,65,46,30.04,29.82,25,3,25,0.00
2013-11-11,48.3,43.6,34.4,35.2,30.6,26.3,74,60,53,30.19,29.95,20,2,20,0.00
2013-11-12,47.0,33.4,25.8,35.4,24.4,17.9,91,70,59,30.28,29.92,16,2,16,0.00
2013-11-13,35.5,28.8,23.9,21.7,17.8,14.4,78,64,44,30.38,30.26,15,2,15,0.00
2013-11-14,49.0,38.6,29.9,22.3,19.8,16.1,69,48,30,30.27,30.17,16,3,16,0.00
2013-11-15,55.0,43.4,34.1,32.9,24.0,18.4,70,48,26,30.23,30.15,7,0,10,0.00
2013-11-16,58.5,48.9,39.8,45.7,40.0,27.0,93,73,51,30.31,30.22,9,1,9,0.01
2013-11-17,58.1,53.8,47.6,57.0,52.7,45.4,97,96,92,30.25,29.75,14,2,14,0.04
2013-11-18,60.7,55.2,45.3,59.6,41.0,27.2,96,62,35,29.78,29.59,22,4,22,0.23
2013-11-19,45.3,38.8,31.0,30.3,25.7,22.0,69,59,50,30.35,29.77,19,3,19,0.00
2013-11-20,41.7,32.7,25.6,22.4,18.2,7.5,74,57,25,30.61,30.34,14,2,14,0.00
2013-11-21,47.1,36.8,22.8,40.5,29.6,17.8,88,75,61,30.61,30.39,11,1,11,0.00
2013-11-22,53.0,48.6,44.7,48.4,45.5,40.2,94,89,83,30.40,29.91,12,1,12,0.03
2013-11-23,49.6,37.2,24.8,47.1,26.2,12.0,91,65,45,30.06,29.89,24,3,24,0.00
2013-11-24,25.4,21.4,18.3,12.0,6.7,4.1,62,53,41,30.39,30.01,25,4,25,0.00
2013-11-25,31.5,25.2,17.1,17.6,13.2,8.2,71,60,53,30.48,30.31,11,2,12,0.00
2013-11-26,42.2,32.0,29.5,40.8,24.1,15.0,96,74,54,30.32,29.74,12,2,12,0.54
2013-11-27,57.7,40.3,29.3,56.9,38.1,20.0,97,92,67,29.77,29.39,18,3,18,1.00
2013-11-28,30.7,27.3,23.8,20.0,16.0,12.2,75,63,46,30.45,29.73,26,3,26,0.00
2013-11-29,33.4,28.3,22.5,23.6,20.3,16.9,83,72,61,30.73,30.45,8,0,8,0.00
2013-11-30,31.3,26.0,17.0,25.5,18.7,13.1,86,74,54,30.74,30.39,12,1,12,0.00
2013-12-1,45.6,35.3,24.6,33.2,28.4,21.8,92,77,59,30.39,30.00,7,0,7,0.00
2013-12-2,45.4,36.5,30.5,33.3,30.7,27.5,90,80,61,30.00,29.88,5,0,5,0.00
2013-12-3,49.7,36.7,29.5,37.5,31.7,27.3,95,83,54,30.01,29.87,8,0,8,0.00
2013-12-4,50.0,41.1,30.2,42.1,36.2,28.1,95,83,68,30.12,30.00,6,0,6,0.00
2013-12-5,53.8,49.2,44.4,53.0,48.0,41.2,97,95,86,30.11,29.92,10,1,10,0.02
2013-12-6,57.8,43.1,34.4,57.2,41.8,33.1,98,95,91,30.14,29.86,10,1,11,0.65
2013-12-7,34.4,32.4,31.0,33.1,30.6,28.5,95,93,87,30.30,30.08,9,1,9,0.02
2013-12-8,29.0,25.6,22.5,25.8,19.7,15.9,93,78,65,30.58,30.37,3,1,12,0.00
2013-12-9,34.2,32.6,27.8,33.2,31.4,26.3,96,96,94,30.36,29.98,10,2,11,0.06
2013-12-10,32.3,29.2,22.2,31.3,27.2,17.7,96,92,84,30.10,29.87,11,1,11,0.31
2013-12-11,29.5,24.1,19.8,21.7,17.9,15.5,85,77,65,30.31,30.10,16,2,16,0.00
2013-12-12,24.2,20.2,15.7,16.6,10.7,6.9,85,67,53,30.35,30.14,17,2,17,0.00
2013-12-13,32.2,24.1,14.6,20.4,14.4,6.4,81,66,56,30.33,30.11,22,2,22,0.00
2013-12-14,26.5,21.8,17.4,24.5,18.6,15.5,94,88,75,30.47,29.80,16,3,16,0.22
2013-12-15,33.9,28.6,21.3,32.4,26.8,19.9,96,93,85,29.82,29.57,23,2,23,0.43
2013-12-16,27.7,22.1,12.3,24.5,15.0,8.8,89,74,56,30.21,29.81,19,2,19,0.00
2013-12-17,24.1,17.9,11.8,22.2,15.3,8.7,93,89,79,30.21,29.96,7,0,7,0.18
2013-12-18,34.1,24.4,14.0,25.8,19.5,11.9,94,82,67,30.17,29.94,16,2,16,0.00
2013-12-19,42.0,31.6,18.7,30.0,24.3,15.2,91,75,56,30.17,30.03,11,1,11,0.00
2013-12-20,50.4,41.2,32.1,36.8,32.0,28.8,89,71,50,30.11,29.96,10,1,12,0.00
2013-12-21,56.2,49.8,41.3,51.8,43.4,35.0,92,79,65,29.98,29.89,11,1,11,0.00
2013-12-22,63.8,59.9,53.7,61.0,57.2,51.3,96,91,84,29.94,29.77,17,3,17,0.02
2013-12-23,57.2,50.4,35.2,55.2,48.4,28.9,96,93,77,30.13,29.90,15,1,15,0.52
2013-12-24,35.9,30.5,21.0,29.3,22.3,10.3,85,72,60,30.35,30.09,20,2,20,0.00
2013-12-25,25.6,20.5,14.1,14.6,10.3,7.3,74,64,52,30.52,30.34,17,1,17,0.00
2013-12-26,31.1,26.3,20.5,27.0,21.9,14.6,89,83,69,30.42,30.16,13,1,13,0.00
2013-12-27,36.2,29.4,22.3,24.9,22.5,18.3,90,76,59,30.34,30.26,14,1,14,0.00
2013-12-28,48.6,37.3,25.8,29.9,26.4,22.4,88,66,46,30.28,30.06,12,2,18,0.00
2013-12-29,41.9,39.0,36.9,39.7,33.9,28.6,96,83,63,30.07,29.47,13,1,13,0.90
2013-12-30,39.9,32.6,18.0,37.3,27.4,10.2,95,82,64,30.17,29.69,13,2,13,0.00
2013-12-31,28.2,21.8,15.8,23.8,13.7,9.2,87,71,57,30.28,30.05,21,2,21,0.00
2014-1-1,29.7,24.0,15.8,22.0,16.6,9.2,86,73,62,30.39,30.23,9,1,9,0.00
2014-1-2,26.7,21.0,10.1,21.1,17.5,7.6,92,86,75,30.24,29.70,13,3,13,0.13